SCP
0 0 0 1 2 1 2 4 3 3 2 1 1 1 0 0 0 0 1 1 1 1 1 1 1 1 0 0 0 0 0 0
1 1 2 2 1 2 3 3 3 1 1 1 1 1 1 2 2 1 1 1 1 2 1 1 1 0 0 0 0 0 1 0
1 1 2 2 3 3 3 2 1 1 1 1 1 1 1 1 1 1 1 1 1 1 1 1 0 0 0 1 0 0 1 0
1 1 1 1 0 0 0 0 0 0 0 0 1 1 1 2 1 1 1 1 1 1 0 0 0 0 0 0 0 0 0 0
1 1 0 0 0 0 0 0 0 0 0 0 0 0 0 0 0 0 1 1 0 0 0 0 0 0 0 0 0 0 0 0
0 0 0 0 0 0 0 0 0 0 0 0 0 0 0 0 0 0 0 0 0 0 0 0 0 0 0 0 0 0 0 0
1 1 0 0 0 0 0 0 0 0 0 0 0 0 0 0 0 0 0 0 0 0 0 0 0 0 0 0 0 0 0 0
0 0 0 1 1 1 0 0 0 0 0 0 0 0 0 0 0 0 0 0 0 0 0 0 0 0 0 0 0 0 0 0
0 0 0 1 1 0 0 0 0 0 0 0 0 0 0 0 0 0 0 0 0 0 0 0 0 0 0 0 0 0 0 0
0 0 0 1 0 0 0 0 0 0 0 0 0 0 0 0 0 0 0 0 0 0 1 0 0 0 0 0 0 0 0 0
0 0 0 0 0 0 0 0 0 0 0 0 0 0 0 0 0 0 -0 0 0 0 0 0 0 0 0 0 0 0 0 0
0 0 0 0 0 0 0 0 0 0 0 0 0 0 0 0 0 0 0 0 0 0 0 0 0 0 0 0 0 0 0 0
0 0 0 0 0 0 0 0 0 0 0 0 0 0 0 0 0 0 0 0 0 0 0 0 0 0 0 0 0 0 0 0
0 0 0 0 0 0 0 0 0 0 0 0 0 0 0 0 0 0 0 0 0 0 0 0 0 0 0 0 0 0 -0 0
0 0 0 0 0 0 0 0 0 0 0 0 0 0 0 0 0 0 0 0 0 0 0 0 0 0 0 0 0 -0 -0 0
0 0 0 0 0 0 0 0 0 0 0 0 0 0 0 0 0 0 0 0 -0 0 0 0 0 0 0 0 0 0 0 0
0 0 0 0 0 0 0 0 0 0 0 0 0 0 0 0 0 0 0 0 0 0 0 0 0 0 0 0 0 0 0 0
0 0 0 0 0 0 0 0 0 0 0 0 0 0 0 0 0 -0 -0 0 -0 0 0 0 0 0 0 -0 -0 -0 0 0
0 0 0 0 0 0 0 0 0 0 0 0 0 0 0 0 0 -0 0 -0 -0 -0 0 -0 -0 -0 -0 0 0 0 0 0
0 0 0 0 0 0 0 0 0 0 0 0 0 -0 0 0 0 0 0 0 -0 -0 -0 -0 -0 -0 0 0 0 0 0 0
Wind_Speed_500mb
10 12 14 14 11 5 19 21 20 20 27 18 22 37 47 32 29 33 33 37 39 38 39 42 43 45 45 44 46 44 44 45
11 13 14 10 8 13 12 17 19 19 13 11 8 10 14 19 23 25 27 29 32 35 33 33 34 36 38 39 42 43 40 42
20 26 26 22 18 14 10 7 4 9 4 3 7 11 16 17 17 24 28 28 27 31 31 30 34 31 30 33 30 30 36 38
27 31 30 27 25 22 18 13 9 6 2 4 7 11 14 15 20 24 25 24 25 24 26 30 31 31 37 32 33 36 33 34
23 23 22 20 18 13 12 9 5 2 3 6 8 11 14 18 22 25 28 27 30 31 32 34 36 35 36 41 44 47 41 45
16 17 17 14 12 11 9 5 4 5 8 10 11 14 20 24 26 28 32 33 32 34 35 34 38 41 44 41 46 49 42 46
13 12 11 10 8 6 4 5 8 11 11 12 16 21 24 25 24 24 28 29 32 36 36 42 44 47 45 44 47 47 48 50
6 3 3 3 5 5 6 9 12 11 13 17 21 24 23 22 22 24 26 30 36 36 37 40 43 43 39 34 44 40 42 45
1 4 6 6 7 7 10 13 13 13 19 21 24 21 20 23 19 24 29 36 42 43 41 44 50 44 42 40 44 37 40 42
5 10 12 10 10 12 14 15 15 18 22 22 20 21 24 26 28 31 34 41 47 48 46 41 41 41 45 47 42 45 47 43
12 15 15 16 13 12 17 19 21 25 24 22 23 28 30 31 35 38 50 33 49 47 50 52 54 52 54 55 55 49 44 54
15 15 18 19 20 19 19 24 23 23 26 29 35 38 40 40 41 45 41 44 42 51 58 63 61 56 57 51 42 41 47 49
14 15 19 22 23 22 24 26 27 30 32 35 41 45 44 45 41 41 41 42 46 61 69 65 57 56 48 56 61 58 66 65
17 21 25 27 28 30 32 34 36 39 37 43 46 45 46 48 43 46 49 60 69 58 48 45 44 43 50 48 55 66 66 55
21 23 25 28 29 31 32 33 34 31 35 40 44 47 40 36 55 47 58 61 55 50 45 41 31 41 49 50 47 43 36 31
16 19 22 26 28 31 32 33 25 29 36 39 36 34 44 48 54 57 51 45 47 42 38 42 39 33 40 31 28 27 23 26
20 23 27 28 30 37 34 25 23 31 35 38 41 40 49 48 40 36 38 40 39 41 33 29 32 37 24 26 31 17 19 30
26 28 33 35 36 35 27 19 23 24 37 40 41 33 33 30 31 33 36 37 36 31 26 24 22 12 21 28 30 37 32 27
33 38 40 41 35 28 29 25 22 30 28 21 27 20 25 22 27 26 28 27 28 22 14 13 18 33 47 33 26 28 26 26
36 37 32 31 23 28 33 23 15 15 17 15 9 10 16 21 23 25 30 29 25 23 31 34 37 32 23 25 25 26 26 26
Wind_Direction_500mb
327 307 303 317 351 105 149 186 200 209 216 212 247 256 275 301 303 289 298 301 302 297 290 288 285 284 280 278 274 275 271 267
50 61 80 89 129 153 171 178 171 201 239 232 258 307 308 316 320 320 314 301 298 300 300 304 300 293 288 285 285 281 274 277
86 90 95 100 101 117 146 142 163 176 176 234 291 321 314 302 307 306 303 302 304 300 304 307 310 304 304 297 302 302 302 293
104 101 100 100 105 112 114 112 114 135 204 282 306 313 315 323 316 315 308 309 301 305 308 315 310 309 303 306 308 310 303 297
107 105 106 107 108 105 96 93 79 35 329 323 329 330 330 322 318 313 311 319 316 314 317 317 311 306 301 301 300 298 292 291
110 109 105 102 95 85 80 75 34 338 319 316 323 322 319 314 311 309 320 321 323 322 318 315 313 313 308 306 307 302 301 302
105 104 92 94 89 74 40 327 313 307 309 307 310 319 321 319 316 323 318 318 318 320 319 319 316 309 307 303 304 302 299 297
99 59 33 25 38 32 354 308 306 301 305 309 313 317 317 317 315 319 318 317 317 314 314 315 313 309 309 303 307 311 307 299
18 328 323 316 321 336 322 304 294 300 305 306 307 307 313 314 313 314 311 312 303 300 300 307 311 321 313 307 307 310 311 309
300 295 296 294 294 315 308 301 292 296 299 297 298 303 305 307 306 299 297 302 305 302 302 304 314 321 323 311 311 308 310 315
287 289 288 291 277 294 303 300 294 294 294 292 295 301 300 301 293 299 295 311 316 313 314 315 313 310 308 305 304 306 311 317
291 293 290 291 290 294 295 298 299 299 298 296 296 297 292 297 304 287 307 308 312 316 310 311 310 308 308 303 304 307 305 306
294 293 296 295 291 288 292 296 298 295 297 300 301 295 303 298 298 310 307 311 312 311 307 306 300 301 304 303 300 304 305 310
291 291 294 295 291 290 292 295 296 295 292 297 305 306 301 306 310 307 304 308 314 310 306 305 296 291 304 311 306 303 304 301
294 296 297 296 296 297 298 298 295 297 299 300 303 308 306 309 315 308 311 311 306 308 314 316 316 311 311 311 318 323 323 318
304 305 302 301 302 302 304 301 299 306 302 307 306 304 316 315 314 316 311 307 313 316 321 324 319 311 321 320 340 353 355 359
304 305 307 304 304 305 303 294 300 303 308 308 309 314 307 308 311 311 310 311 320 319 318 315 326 321 324 338 338 5 40 36
300 302 304 304 303 304 301 296 295 300 311 316 313 321 322 324 322 325 325 321 322 322 320 320 318 347 17 43 55 60 45 24
294 294 296 297 291 281 290 299 302 308 309 319 326 323 336 347 342 340 335 347 346 1 14 10 67 75 79 63 37 33 34 33
291 290 290 281 279 297 299 290 304 311 317 328 347 4 22 18 28 23 23 25 36 51 78 77 89 86 50 57 49 43 39 34
Wind_Speed_850mb
10 12 14 14 11 5 19 21 20 20 27 18 22 37 47 32 29 33 33 37 39 38 39 42 43 45 45 44 46 44 44 45
11 13 14 10 8 13 12 17 19 19 13 11 8 10 14 19 23 25 27 29 32 35 33 33 34 36 38 39 42 43 40 42
20 26 26 22 18 14 10 7 4 9 4 3 7 11 16 17 17 24 28 28 27 31 31 30 34 31 30 33 30 30 36 38
27 31 30 27 25 22 18 13 9 6 2 4 7 11 14 15 20 24 25 24 25 24 26 30 31 31 37 32 33 36 33 34
23 23 22 20 18 13 12 9 5 2 3 6 8 11 14 18 22 25 28 27 30 31 32 34 36 35 36 41 44 47 41 45
16 17 17 14 12 11 9 5 4 5 8 10 11 14 20 24 26 28 32 33 32 34 35 34 38 41 44 41 46 49 42 46
13 12 11 10 8 6 4 5 8 11 11 12 16 21 24 25 24 24 28 29 32 36 36 42 44 47 45 44 47 47 48 50
6 3 3 3 5 5 6 9 12 11 13 17 21 24 23 22 22 24 26 30 36 36 37 40 43 43 39 34 44 40 42 45
1 4 6 6 7 7 10 13 13 13 19 21 24 21 20 23 19 24 29 36 42 43 41 44 50 44 42 40 44 37 40 42
5 10 12 10 10 12 14 15 15 18 22 22 20 21 24 26 28 31 34 41 47 48 46 41 41 41 45 47 42 45 47 43
12 15 15 16 13 12 17 19 21 25 24 22 23 28 30 31 35 38 50 33 49 47 50 52 54 52 54 55 55 49 44 54
15 15 18 19 20 19 19 24 23 23 26 29 35 38 40 40 41 45 41 44 42 51 58 63 61 56 57 51 42 41 47 49
14 15 19 22 23 22 24 26 27 30 32 35 41 45 44 45 41 41 41 42 46 61 69 65 57 56 48 56 61 58 66 65
17 21 25 27 28 30 32 34 36 39 37 43 46 45 46 48 43 46 49 60 69 58 48 45 44 43 50 48 55 66 66 55
21 23 25 28 29 31 32 33 34 31 35 40 44 47 40 36 55 47 58 61 55 50 45 41 31 41 49 50 47 43 36 31
16 19 22 26 28 31 32 33 25 29 36 39 36 34 44 48 54 57 51 45 47 42 38 42 39 33 40 31 28 27 23 26
20 23 27 28 30 37 34 25 23 31 35 38 41 40 49 48 40 36 38 40 39 41 33 29 32 37 24 26 31 17 19 30
26 28 33 35 36 35 27 19 23 24 37 40 41 33 33 30 31 33 36 37 36 31 26 24 22 12 21 28 30 37 32 27
33 38 40 41 35 28 29 25 22 30 28 21 27 20 25 22 27 26 28 27 28 22 14 13 18 33 47 33 26 28 26 26
36 37 32 31 23 28 33 23 15 15 17 15 9 10 16 21 23 25 30 29 25 23 31 34 37 32 23 25 25 26 26 26
Wind_Direction_850mb
327 307 303 317 351 105 149 186 200 209 216 212 247 256 275 301 303 289 298 301 302 297 290 288 285 284 280 278 274 275 271 267
50 61 80 89 129 153 171 178 171 201 239 232 258 307 308 316 320 320 314 301 298 300 300 304 300 293 288 285 285 281 274 277
86 90 95 100 101 117 146 142 163 176 176 234 291 321 314 302 307 306 303 302 304 300 304 307 310 304 304 297 302 302 302 293
104 101 100 100 105 112 114 112 114 135 204 282 306 313 315 323 316 315 308 309 301 305 308 315 310 309 303 306 308 310 303 297
107 105 106 107 108 105 96 93 79 35 329 323 329 330 330 322 318 313 311 319 316 314 317 317 311 306 301 301 300 298 292 291
110 109 105 102 95 85 80 75 34 338 319 316 323 322 319 314 311 309 320 321 323 322 318 315 313 313 308 306 307 302 301 302
105 104 92 94 89 74 40 327 313 307 309 307 310 319 321 319 316 323 318 318 318 320 319 319 316 309 307 303 304 302 299 297
99 59 33 25 38 32 354 308 306 301 305 309 313 317 317 317 315 319 318 317 317 314 314 315 313 309 309 303 307 311 307 299
18 328 323 316 321 336 322 304 294 300 305 306 307 307 313 314 313 314 311 312 303 300 300 307 311 321 313 307 307 310 311 309
300 295 296 294 294 315 308 301 292 296 299 297 298 303 305 307 306 299 297 302 305 302 302 304 314 321 323 311 311 308 310 315
287 289 288 291 277 294 303 300 294 294 294 292 295 301 300 301 293 299 295 311 316 313 314 315 313 310 308 305 304 306 311 317
291 293 290 291 290 294 295 298 299 299 298 296 296 297 292 297 304 287 307 308 312 316 310 311 310 308 308 303 304 307 305 306
294 293 296 295 291 288 292 296 298 295 297 300 301 295 303 298 298 310 307 311 312 311 307 306 300 301 304 303 300 304 305 310
291 291 294 295 291 290 292 295 296 295 292 297 305 306 301 306 310 307 304 308 314 310 306 305 296 291 304 311 306 303 304 301
294 296 297 296 296 297 298 298 295 297 299 300 303 308 306 309 315 308 311 311 306 308 314 316 316 311 311 311 318 323 323 318
304 305 302 301 302 302 304 301 299 306 302 307 306 304 316 315 314 316 311 307 313 316 321 324 319 311 321 320 340 353 355 359
304 305 307 304 304 305 303 294 300 303 308 308 309 314 307 308 311 311 310 311 320 319 318 315 326 321 324 338 338 5 40 36
300 302 304 304 303 304 301 296 295 300 311 316 313 321 322 324 322 325 325 321 322 322 320 320 318 347 17 43 55 60 45 24
294 294 296 297 291 281 290 299 302 308 309 319 326 323 336 347 342 340 335 347 346 1 14 10 67 75 79 63 37 33 34 33
291 290 290 281 279 297 299 290 304 311 317 328 347 4 22 18 28 23 23 25 36 51 78 77 89 86 50 57 49 43 39 34